Location: Gleizolles
(44.4833°N, 6.7667°E)
Time: 15:23:17
(UTC+00:00)

deb Explorer IX - Pass Details

Date: 26 June 2024
Orbit: 510 x 878 km, 38.7° (Epoch: 21 July)

Event Time Altitude Azimuth Distance (km) Brightness Sun altitude
Rises 07:46:20 0° 251° (WSW) 2,716 ? 39.1°
Reaches altitude 10° 07:48:35 10° 243° (WSW) 1,868 ? 39.5°
Maximum altitude 07:52:36 39° 174° (S) 912 ? 40.2°
Drops below altitude 10° 07:57:04 10° 106° (ESE) 2,075 ? 41.0°
Sets 07:59:41 0° 99° (E) 3,061 ? 41.5°
